TimeCDT,TemperatureF,Dew PointF,Humidity,Sea Level PressureIn,VisibilityMPH,Wind Direction,Wind SpeedMPH,Gust SpeedMPH,PrecipitationIn,Events,Conditions,WindDirDegrees,DateUTC
12:56 AM,77.0,73.0,88,29.99,10.0,Calm,Calm,-,N/A,,Partly Cloudy,0,2013-08-24 05:56:00
1:56 AM,75.0,72.0,90,29.98,10.0,Calm,Calm,-,N/A,,Clear,0,2013-08-24 06:56:00
2:56 AM,73.9,72.0,93,29.97,10.0,Calm,Calm,-,N/A,,Clear,0,2013-08-24 07:56:00
3:56 AM,73.0,71.1,93,29.98,10.0,Calm,Calm,-,N/A,,Clear,0,2013-08-24 08:56:00
4:15 AM,73.4,71.6,94,30.00,1.8,Calm,Calm,-,N/A,,Clear,0,2013-08-24 09:15:00
4:23 AM,73.4,71.6,94,30.00,3.0,Calm,Calm,-,N/A,,Clear,0,2013-08-24 09:23:00
4:56 AM,73.0,71.1,93,29.99,10.0,Calm,Calm,-,N/A,,Clear,0,2013-08-24 09:56:00
5:56 AM,71.1,70.0,96,30.00,7.0,Calm,Calm,-,N/A,,Clear,0,2013-08-24 10:56:00
6:56 AM,71.1,70.0,96,30.02,9.0,Calm,Calm,-,N/A,,Clear,0,2013-08-24 11:56:00
7:56 AM,75.9,73.0,91,30.04,10.0,Variable,3.5,-,N/A,,Clear,0,2013-08-24 12:56:00
8:56 AM,81.0,72.0,74,30.05,10.0,ENE,5.8,-,N/A,,Clear,70,2013-08-24 13:56:00
9:56 AM,84.9,70.0,61,30.06,10.0,Variable,5.8,-,N/A,,Clear,0,2013-08-24 14:56:00
10:56 AM,87.1,70.0,57,30.05,10.0,Variable,4.6,-,N/A,,Partly Cloudy,0,2013-08-24 15:56:00
11:56 AM,91.0,68.0,47,30.04,10.0,NE,8.1,17.3,N/A,,Clear,50,2013-08-24 16:56:00
12:56 PM,91.9,68.0,45,30.03,10.0,ENE,9.2,17.3,N/A,,Scattered Clouds,70,2013-08-24 17:56:00
1:56 PM,91.9,68.0,45,30.02,10.0,ENE,8.1,-,N/A,,Mostly Cloudy,70,2013-08-24 18:56:00
2:56 PM,93.0,66.9,42,30.01,10.0,East,12.7,19.6,N/A,,Scattered Clouds,90,2013-08-24 19:56:00
3:56 PM,91.0,66.9,45,30.00,10.0,East,9.2,-,N/A,,Mostly Cloudy,80,2013-08-24 20:56:00
4:56 PM,93.0,66.9,42,29.99,10.0,Variable,5.8,-,N/A,,Partly Cloudy,0,2013-08-24 21:56:00
5:56 PM,91.9,66.9,44,29.98,10.0,Variable,4.6,-,N/A,,Clear,0,2013-08-24 22:56:00
6:56 PM,90.0,68.0,48,29.99,10.0,Variable,6.9,-,N/A,,Scattered Clouds,0,2013-08-24 23:56:00
7:56 PM,82.9,68.0,60,30.01,10.0,Calm,Calm,-,N/A,,Clear,0,2013-08-25 00:56:00
8:56 PM,80.1,69.1,69,30.02,10.0,Calm,Calm,-,N/A,,Clear,0,2013-08-25 01:56:00
9:56 PM,79.0,70.0,74,30.05,10.0,Variable,3.5,-,N/A,,Clear,0,2013-08-25 02:56:00
10:56 PM,78.1,72.0,81,30.06,10.0,Calm,Calm,-,N/A,,Clear,0,2013-08-25 03:56:00
11:56 PM,75.9,73.0,91,30.06,10.0,Calm,Calm,-,N/A,,Clear,0,2013-08-25 04:56:00